RH
55 58 63 63 63 65 66 65 64 64 66 68 73 77 79 76 74 72 68 62 61 59 58 55 56 53 51 48 46 43 48 58 80 56 45 45 48 79 89 84 83 94 96
56 59 59 61 65 68 69 68 66 64 65 63 71 78 77 74 69 68 67 64 60 62 66 64 71 70 62 67 63 68 53 52 55 60 44 42 48 86 92 90 96 97 94
55 56 57 59 63 66 68 69 68 71 70 76 78 80 77 70 67 66 67 68 68 69 73 72 72 73 79 78 66 74 55 56 47 45 46 44 52 96 86 82 74 68 93
58 60 62 64 64 64 65 65 66 73 80 85 84 81 75 66 64 66 65 66 67 69 78 88 90 81 54 52 50 50 47 56 51 45 45 45 49 65 92 84 66 84 92
63 64 66 69 69 70 72 72 76 84 88 86 84 80 73 65 76 86 71 70 69 78 90 98 98 96 86 52 48 46 45 46 49 46 49 47 54 55 64 84 84 56 92
65 67 69 71 76 76 78 79 86 89 88 87 84 80 90 98 99 99 80 84 93 96 96 96 98 98 77 55 47 44 45 42 44 49 54 53 63 60 64 71 78 74 64
71 71 72 76 81 85 86 86 87 89 88 86 88 99 100 99 99 93 93 94 96 96 96 88 90 94 88 77 60 45 44 44 43 43 43 49 63 62 66 77 65 57 71
83 81 81 86 86 88 92 89 88 91 95 99 99 99 99 99 98 98 98 98 97 96 91 90 74 58 62 70 66 52 44 35 30 32 42 56 52 59 65 77 48 72 87
84 85 91 89 88 93 98 99 100 99 99 98 99 99 98 98 99 96 97 97 96 93 90 86 63 42 54 66 51 44 61 87 97 96 99 92 75 58 71 80 76 60 70
100 97 95 96 98 100 100 99 99 99 99 99 98 98 98 98 98 98 98 97 96 94 85 82 76 71 81 37 38 55 89 96 90 74 71 57 52 64 77 89 89 88 60
100 100 99 100 100 100 100 99 100 99 98 98 98 98 98 97 97 97 98 96 96 89 75 83 98 100 95 48 55 71 80 83 69 75 80 78 72 64 56 45 58 63 51
99 100 99 100 100 100 99 100 100 98 97 97 97 98 98 96 96 97 97 97 87 70 80 86 93 99 97 94 72 86 69 64 73 81 81 83 87 86 73 66 62 61 61
100 100 99 99 100 99 98 97 99 99 98 96 96 96 97 97 97 97 96 96 96 93 82 87 98 92 94 87 95 98 73 70 75 77 79 79 78 84 87 77 77 75 70
100 100 100 100 100 100 100 98 97 98 97 96 96 96 96 96 97 96 96 90 53 80 91 95 96 96 92 99 99 86 80 78 82 76 76 75 74 77 81 84 84 85 82
100 100 100 99 98 99 98 96 96 96 90 93 93 95 95 96 96 94 82 82 63 58 91 92 94 94 100 99 94 91 82 83 85 88 84 79 71 68 74 70 70 69 78
100 99 98 98 98 97 97 97 97 97 96 96 95 96 96 96 96 98 95 87 81 72 86 91 95 100 99 97 97 96 94 92 87 78 78 79 76 70 64 64 66 61 69
97 97 98 98 96 97 98 96 97 98 97 97 96 94 94 80 100 100 100 97 92 84 75 70 93 90 91 98 95 91 89 84 83 82 75 74 72 71 67 58 65 62 69
97 97 96 96 96 97 96 96 96 96 97 98 97 95 93 93 99 100 100 99 98 88 64 68 84 86 92 92 92 88 84 82 79 76 81 78 72 70 70 66 65 64 64
96 97 97 97 96 96 96 97 96 96 96 97 97 97 97 97 97 99 100 83 90 86 59 61 77 82 83 81 80 84 77 77 78 76 72 80 76 73 72 74 70 69 69
99 97 97 96 96 97 96 96 97 96 97 97 97 95 97 97 97 98 94 91 83 78 92 91 91 94 94 89 84 81 65 70 76 78 74 72 80 79 76 76 77 75 76
96 98 97 96 96 96 96 96 96 96 96 97 97 95 92 91 92 92 94 94 92 79 84 88 87 89 87 77 72 77 58 64 72 77 80 81 74 72 81 79 79 79 82
100 99 98 96 96 96 96 96 95 94 95 95 97 98 96 93 91 90 85 80 51 79 82 78 85 85 84 73 59 53 58 69 75 74 79 74 78 80 79 85 87 85 84
98 100 96 100 100 97 98 95 93 91 90 92 94 93 95 96 94 91 86 68 86 57 62 66 66 71 69 60 54 56 61 64 68 74 71 75 78 78 76 82 90 91 88
99 98 100 100 100 98 94 92 89 86 83 81 83 83 80 78 79 73 65 79 92 86 77 69 60 58 58 58 61 68 74 77 84 87 82 81 79 84 84 83 86 88 91
100 100 99 97 97 96 97 96 93 90 87 83 81 80 78 77 74 74 84 66 68 85 80 73 70 67 66 70 74 77 88 94 95 94 90 88 90 90 87 85 86 85 82
98 98 98 98 98 98 96 96 95 95 94 92 92 93 93 90 84 74 91 96 91 92 86 81 79 79 81 83 85 94 95 93 88 94 96 95 87 68 62 68 76 81 89
Wind_Speed
16 17 20 22 21 21 22 22 23 25 25 25 23 21 19 18 17 16 14 14 14 13 12 11 10 9 9 9 8 8 7 4 8 7 14 9 7 8 9 9 10 9 6
12 14 17 18 20 21 22 23 24 26 29 29 27 25 22 21 18 18 17 16 16 15 13 14 12 12 8 6 5 7 8 3 11 14 12 6 7 8 8 8 7 7 3
11 13 15 15 16 19 19 20 23 26 28 29 29 27 23 21 19 18 18 17 15 14 13 14 13 11 7 7 6 7 9 10 10 15 10 8 8 11 11 7 5 6 5
11 12 13 14 16 19 20 21 22 24 26 27 27 26 24 22 22 21 19 18 16 13 12 8 7 6 7 9 10 10 10 13 13 18 13 10 9 9 10 9 8 7 4
11 12 15 16 17 19 20 21 22 23 24 28 29 25 23 23 20 19 18 18 18 15 9 6 5 7 9 9 9 10 13 15 16 15 11 7 9 9 8 7 7 5 6
8 10 12 13 14 18 20 20 21 23 25 28 26 26 24 20 19 18 19 19 14 9 8 9 12 10 8 10 9 10 12 16 16 10 7 8 9 10 9 6 9 6 3
9 9 10 11 11 13 16 17 19 20 20 23 25 22 20 18 17 19 19 14 9 8 10 11 9 10 10 10 10 11 11 9 8 8 11 10 11 11 10 8 7 6 4
6 6 8 8 6 9 13 15 17 18 20 22 19 18 19 19 17 16 14 11 11 10 10 10 9 9 8 9 11 13 13 12 11 12 11 9 8 11 10 8 9 11 10
3 6 5 5 6 9 13 15 15 17 16 15 17 18 18 15 17 17 15 15 14 13 11 9 8 8 9 12 16 20 20 19 16 16 15 15 12 11 9 12 11 8 3
5 4 4 5 7 11 13 13 15 16 16 16 14 13 14 16 17 18 17 17 17 15 12 8 8 9 9 11 17 20 21 20 15 15 19 21 19 13 8 10 11 9 8
3 2 2 3 6 9 12 14 16 15 13 13 15 15 16 17 15 15 16 16 16 17 15 13 11 9 9 12 13 15 18 16 16 16 18 19 19 19 18 18 12 8 10
3 3 4 5 9 11 13 13 13 14 16 16 16 16 17 14 13 13 12 11 14 15 14 14 12 11 12 13 15 16 17 17 17 16 17 17 16 17 19 20 21 21 21
5 6 7 9 11 12 14 15 15 16 18 18 18 18 16 15 13 11 10 10 8 9 12 18 14 14 15 15 14 14 16 17 18 18 17 16 14 13 14 16 16 16 17
7 8 10 11 11 12 12 14 17 18 18 18 15 16 15 12 14 13 14 10 9 12 15 15 17 19 17 12 17 13 13 14 15 16 16 14 13 11 13 12 13 12 11
6 7 9 10 12 12 12 13 16 16 19 20 18 18 18 12 12 17 13 14 16 17 19 18 19 19 17 16 14 14 13 14 13 13 12 13 12 12 13 11 10 9 12
8 10 12 13 13 13 13 11 10 12 13 11 11 13 15 11 12 13 17 15 15 17 20 21 19 19 18 16 17 16 14 12 12 11 12 12 11 10 10 9 10 10 13
9 11 13 13 13 15 14 14 13 10 9 9 10 9 10 10 13 13 13 15 17 18 17 19 21 18 17 18 16 16 15 12 11 11 10 10 11 10 9 9 11 11 12
9 10 13 14 15 16 16 15 15 14 13 14 10 11 10 13 15 15 16 17 18 11 13 18 18 17 17 17 17 15 13 13 11 10 10 10 10 10 8 8 8 11 10
8 11 12 14 15 15 14 14 14 13 12 13 15 12 13 13 15 15 18 15 18 13 12 17 17 16 17 15 15 14 12 12 11 10 11 12 11 9 7 7 6 6 6
8 10 13 15 15 15 15 15 13 12 12 15 18 18 19 18 18 19 20 13 12 15 13 13 13 14 14 14 14 15 13 13 13 11 9 9 9 8 7 6 6 5 5
10 12 14 15 15 15 16 14 12 12 12 13 18 19 21 23 21 18 15 12 11 12 11 10 11 12 13 14 15 16 14 13 12 12 10 8 7 7 8 7 6 5 4
11 14 15 15 15 15 15 13 13 12 12 13 14 16 18 17 16 15 11 8 8 14 11 8 12 11 11 13 16 15 13 12 12 13 11 10 9 8 9 9 7 6 4
12 14 14 13 13 15 14 12 12 11 12 13 15 15 14 12 11 10 9 9 8 11 10 10 10 11 10 11 11 10 10 11 12 12 12 10 11 10 10 10 8 7 7
13 13 13 14 14 15 14 13 11 10 11 11 13 14 12 10 8 7 7 12 9 9 7 8 9 9 10 10 10 9 8 8 9 11 11 10 11 10 10 10 9 8 7
12 13 14 15 15 15 14 13 13 12 12 12 12 12 12 11 10 10 9 10 11 9 8 8 9 10 10 9 9 9 9 9 10 11 12 11 11 11 10 11 10 9 8
12 12 12 13 13 13 14 14 13 14 14 14 13 12 12 13 13 13 11 13 13 12 11 10 9 10 11 11 11 10 10 10 11 12 12 12 11 11 11 11 10 9 8
Wind_Direction
233 240 245 245 245 243 246 250 248 244 234 227 224 218 217 216 211 209 205 193 181 172 163 156 142 123 118 111 116 117 121 157 112 105 136 132 115 136 121 94 89 97 82
245 244 250 252 250 251 253 253 249 242 232 227 228 220 215 212 206 202 189 179 174 166 164 163 157 147 133 141 143 135 119 116 149 132 140 130 120 143 137 124 115 106 66
241 251 262 269 265 263 261 252 248 241 232 223 219 209 204 200 190 186 189 181 174 170 167 166 163 157 164 183 167 148 145 137 161 158 143 141 128 147 133 130 133 131 140
248 261 274 281 279 274 267 261 252 238 231 221 215 208 202 191 187 189 192 183 173 162 159 157 172 153 163 166 169 168 171 171 169 159 139 148 149 146 167 154 102 110 115
268 275 283 289 282 269 261 256 246 234 220 216 207 199 191 185 192 193 194 188 175 164 165 187 171 182 191 195 191 186 180 172 169 158 145 151 164 159 150 170 163 119 100
279 285 290 290 285 277 267 257 239 221 209 204 198 191 185 196 202 200 200 179 167 166 161 158 135 125 163 190 183 174 176 173 172 159 159 165 165 157 150 161 161 184 179
288 292 288 279 276 270 252 237 216 201 196 192 186 187 186 189 187 191 177 171 176 169 166 167 151 152 156 150 159 171 168 185 195 193 171 167 159 163 157 145 161 181 160
302 295 272 247 244 246 230 213 203 196 196 187 180 185 184 171 178 177 178 181 172 166 170 168 165 156 162 158 146 140 128 121 119 120 125 123 145 166 158 151 144 123 111
289 286 251 239 226 218 205 204 199 196 184 192 193 190 181 174 178 182 179 172 162 157 160 180 168 146 136 143 145 136 123 108 96 95 96 92 98 135 155 171 162 140 109
287 244 232 222 216 207 202 192 196 198 194 190 180 189 199 184 188 195 189 173 161 156 154 169 168 158 146 149 148 141 132 127 132 124 106 97 97 113 144 180 195 184 139
267 186 156 211 211 200 186 189 192 187 182 173 171 168 173 178 178 195 191 180 177 164 154 156 155 155 158 155 157 150 140 136 131 126 114 105 104 100 95 89 123 170 134
237 157 160 188 190 181 182 184 184 178 170 167 165 153 164 170 176 177 177 187 180 174 175 171 164 158 148 147 143 139 136 137 136 130 117 109 110 112 107 102 101 100 92
201 179 176 184 183 183 182 177 173 177 168 156 158 151 153 166 164 159 156 172 195 196 185 168 155 146 146 140 138 145 140 139 138 134 126 118 114 118 129 122 114 104 92
199 194 192 183 170 180 181 185 180 176 163 154 164 165 163 152 161 161 150 152 142 151 145 159 166 160 161 152 153 154 142 149 146 135 128 125 124 123 141 141 134 124 107
206 195 185 178 172 170 183 191 190 193 192 178 184 194 183 169 174 185 183 165 160 162 162 164 161 161 158 157 160 154 152 154 151 146 146 141 129 132 129 135 140 146 135
185 182 186 178 172 171 172 169 205 202 194 194 195 205 199 198 179 181 186 174 171 175 175 171 169 168 163 164 160 161 167 165 163 158 162 159 150 134 126 138 147 135 130
191 186 184 179 175 170 169 165 150 167 172 154 150 169 195 182 175 175 176 177 174 177 183 179 176 175 174 172 172 173 167 170 170 174 168 161 159 151 141 131 138 130 128
194 191 189 183 180 175 175 177 173 170 169 167 164 166 170 167 169 165 162 159 163 187 195 186 182 180 178 177 179 179 177 177 174 177 179 174 174 167 154 133 137 137 125
185 184 187 182 182 182 184 186 186 186 188 184 177 167 164 163 171 171 169 185 191 190 193 189 185 186 188 190 189 191 196 190 186 180 181 183 181 179 163 158 152 148 148
186 185 180 180 178 177 179 178 175 175 175 166 164 170 164 160 171 180 187 196 201 197 189 193 201 206 208 207 204 200 196 191 190 191 185 184 187 192 187 180 181 174 164
177 173 178 180 180 180 180 179 175 169 164 170 171 178 177 177 176 182 190 204 210 204 202 209 210 209 207 207 203 200 202 202 202 202 200 196 194 195 204 205 200 194 196
170 173 178 178 182 183 186 186 181 179 174 166 165 174 185 189 189 194 206 233 219 195 194 203 200 207 214 213 208 205 208 216 216 211 209 207 207 215 216 213 213 216 223
166 169 177 169 179 185 184 183 181 183 184 186 184 186 191 200 206 212 216 189 177 191 204 205 210 214 214 211 213 221 229 226 219 213 209 219 224 224 222 222 224 227 234
166 169 172 180 180 184 186 185 187 186 186 188 195 203 209 208 205 207 194 185 189 192 206 211 215 220 215 214 220 226 225 212 213 218 227 231 223 223 229 230 230 232 234
182 180 183 185 187 188 188 189 192 193 196 199 202 207 209 204 201 198 196 199 209 212 218 214 219 221 220 221 220 212 218 225 225 227 227 223 227 237 236 230 231 236 239
176 180 183 184 185 185 185 188 193 200 209 214 217 220 218 212 211 210 221 222 214 214 218 216 218 224 224 218 215 225 225 226 225 218 220 228 235 232 230 234 235 237 239